Location: Jackson Park
(37.2862°N, 79.9123°W)
Time: 14:39:56
(UTC+00:00)

S-56A Canister/Altair - Pass Details

Date: 19 May 2026
Orbit: 633 x 2484 km, 38.9° (Epoch: 6 June)

Event Time Altitude Azimuth Distance (km) Brightness Sun altitude
Rises 06:13:34 0° 279° (W) 3,029 - -31.3°
Reaches altitude 10° 06:15:56 10° 268° (W) 2,221 - -31.2°
Maximum altitude 06:20:19 29° 208° (SSW) 1,518 - -31.0°
Drops below altitude 10° 06:26:03 10° 150° (SSE) 2,945 - -30.6°
Sets 06:29:42 0° 140° (SE) 4,224 - -30.4°
